DLH72M LOWS-EDDF

Flight info

Callsign DLH72M
Flight time 0h 46m
Altitude 30000
Route INROM DCT SIMBA Y700 NENUM T161 DEBHI DEBHI1B
Aircraft A320/M-SDE3FGHIRWY/LB1

Departure

Time 2026-05-07 17:26
Airport Salzburg Airport (LOWS)

Arrival

Time 2026-05-07 18:12
Airport Frankfurt Main Airport (EDDF)
Time Latitude Longitude Altitude Speed Heading
2026-05-07 17:12 47.79232 13.00085 1422 ft 0 kts 102°
2026-05-07 17:17 47.79234 13.00073 1422 ft 4 kts 100°
2026-05-07 17:18 47.79238 13.00034 1422 ft 4 kts 90°
2026-05-07 17:18 47.79234 12.99996 1422 ft 4 kts 54°
2026-05-07 17:18 47.79223 12.99984 1422 ft 1 kts 337°
2026-05-07 17:18 47.79218 12.99987 1422 ft 0 kts 337°
2026-05-07 17:21 47.79241 12.99972 1422 ft 9 kts 336°
2026-05-07 17:22 47.79294 12.99947 1422 ft 7 kts 357°
2026-05-07 17:22 47.79328 12.99980 1422 ft 5 kts 59°
2026-05-07 17:22 47.79344 13.00020 1422 ft 4 kts 64°
2026-05-07 17:22 47.79360 13.00070 1422 ft 5 kts 61°
2026-05-07 17:23 47.79394 13.00083 1422 ft 8 kts 348°
2026-05-07 17:23 47.79464 13.00046 1422 ft 14 kts 337°
2026-05-07 17:23 47.79567 12.99980 1423 ft 19 kts 336°
2026-05-07 17:23 47.79699 12.99897 1422 ft 20 kts 338°
2026-05-07 17:24 47.79843 12.99808 1422 ft 25 kts 337°
2026-05-07 17:24 47.80002 12.99706 1423 ft 23 kts 336°
2026-05-07 17:24 47.80139 12.99618 1422 ft 20 kts 336°
2026-05-07 17:24 47.80227 12.99601 1424 ft 10 kts 14°
2026-05-07 17:25 47.80267 12.99665 1424 ft 8 kts 64°
2026-05-07 17:25 47.80278 12.99764 1421 ft 11 kts 89°
2026-05-07 17:25 47.80252 12.99813 1423 ft 0 kts 156°
2026-05-07 17:25 47.80222 12.99832 1420 ft 21 kts 157°
2026-05-07 17:26 47.79849 13.00070 1421 ft 92 kts 156°
2026-05-07 17:26 47.79086 13.00556 1418 ft 146 kts 156°
2026-05-07 17:26 47.78088 13.01235 1814 ft 161 kts 151°
2026-05-07 17:26 47.77124 13.02073 2520 ft 161 kts 148°
2026-05-07 17:27 47.76138 13.03028 2969 ft 175 kts 144°
2026-05-07 17:27 47.75488 13.04549 3503 ft 183 kts 98°
2026-05-07 17:27 47.75731 13.06365 4054 ft 183 kts 53°
2026-05-07 17:27 47.76722 13.07452 4623 ft 178 kts 11°
2026-05-07 17:28 47.77917 13.07309 5208 ft 173 kts 338°
2026-05-07 17:28 47.79049 13.06696 5800 ft 174 kts 337°
2026-05-07 17:28 47.80184 13.06067 6377 ft 174 kts 336°
2026-05-07 17:28 47.81426 13.05704 6676 ft 193 kts 352°
2026-05-07 17:29 47.82848 13.05545 6826 ft 218 kts 353°
2026-05-07 17:29 47.84446 13.05383 7101 ft 243 kts 354°
2026-05-07 17:29 47.86215 13.05210 7473 ft 266 kts 354°
2026-05-07 17:29 47.88093 13.05030 8132 ft 275 kts 354°
2026-05-07 17:30 47.90021 13.04847 8950 ft 280 kts 353°
2026-05-07 17:30 47.91987 13.04658 9769 ft 285 kts 353°
2026-05-07 17:30 47.94008 13.04457 10313 ft 301 kts 352°
2026-05-07 17:30 47.96175 13.04235 10562 ft 324 kts 353°
2026-05-07 17:31 47.98492 13.04001 10947 ft 340 kts 353°
2026-05-07 17:31 48.00880 13.03768 11625 ft 346 kts 353°
2026-05-07 17:31 48.03296 13.03538 12342 ft 350 kts 353°
2026-05-07 17:31 48.05747 13.03299 13070 ft 355 kts 353°
2026-05-07 17:32 48.08197 13.03056 13771 ft 359 kts 353°
2026-05-07 17:32 48.10705 13.02804 14407 ft 363 kts 353°
2026-05-07 17:32 48.13232 13.02548 15071 ft 365 kts 353°
2026-05-07 17:32 48.14951 13.02374 15535 ft 367 kts 353°
2026-05-07 17:33 48.18339 13.02030 16403 ft 370 kts 353°
2026-05-07 17:33 48.20922 13.01774 17052 ft 373 kts 353°
2026-05-07 17:33 48.23520 13.01504 17698 ft 375 kts 351°
2026-05-07 17:33 48.26122 13.01078 18321 ft 377 kts 349°
2026-05-07 17:34 48.28728 13.00519 18850 ft 379 kts 348°
2026-05-07 17:34 48.31344 12.99893 19377 ft 382 kts 347°
2026-05-07 17:34 48.33980 12.99248 19903 ft 385 kts 347°
2026-05-07 17:34 48.36633 12.98608 20428 ft 387 kts 348°
2026-05-07 17:35 48.39303 12.97988 20971 ft 390 kts 348°
2026-05-07 17:35 48.41997 12.97383 21484 ft 392 kts 348°
2026-05-07 17:35 48.44704 12.96782 21992 ft 395 kts 348°
2026-05-07 17:35 48.47428 12.96123 22478 ft 396 kts 344°
2026-05-07 17:36 48.50026 12.94801 22951 ft 394 kts 332°
2026-05-07 17:36 48.52369 12.92680 23427 ft 393 kts 320°
2026-05-07 17:36 48.54334 12.89906 23839 ft 393 kts 309°
2026-05-07 17:36 48.55896 12.86529 24232 ft 393 kts 297°
2026-05-07 17:37 48.56998 12.82748 24632 ft 395 kts 290°
2026-05-07 17:37 48.57999 12.78873 25014 ft 397 kts 291°
2026-05-07 17:37 48.59005 12.74980 25398 ft 399 kts 291°
2026-05-07 17:37 48.60018 12.71068 25776 ft 401 kts 291°
2026-05-07 17:38 48.61039 12.67122 26178 ft 402 kts 290°
2026-05-07 17:38 48.62053 12.63190 26545 ft 405 kts 290°
2026-05-07 17:38 48.63078 12.59212 26921 ft 406 kts 290°
2026-05-07 17:38 48.64104 12.55223 27292 ft 408 kts 290°
2026-05-07 17:39 48.65134 12.51212 27656 ft 410 kts 290°
2026-05-07 17:39 48.66167 12.47180 28011 ft 412 kts 290°
2026-05-07 17:39 48.67203 12.43121 28359 ft 414 kts 290°
2026-05-07 17:39 48.68239 12.39046 28694 ft 416 kts 290°
2026-05-07 17:40 48.69278 12.34951 29014 ft 418 kts 290°
2026-05-07 17:40 48.70322 12.30836 29328 ft 420 kts 290°
2026-05-07 17:40 48.71374 12.26695 29634 ft 421 kts 291°
2026-05-07 17:40 48.72423 12.22552 29945 ft 423 kts 291°
2026-05-07 17:41 48.73475 12.18382 30047 ft 423 kts 290°
2026-05-07 17:41 48.74515 12.14210 30047 ft 423 kts 289°
2026-05-07 17:41 48.75736 12.05506 30049 ft 423 kts 279°
2026-05-07 17:42 48.76676 11.96756 30051 ft 423 kts 279°
2026-05-07 17:42 48.77623 11.87965 30052 ft 423 kts 279°
2026-05-07 17:43 48.78850 11.79261 30053 ft 424 kts 293°
2026-05-07 17:43 48.81948 11.71641 30053 ft 425 kts 303°
2026-05-07 17:44 48.85250 11.64205 30059 ft 425 kts 303°
2026-05-07 17:44 48.88550 11.56754 30056 ft 425 kts 303°
2026-05-07 17:45 48.91837 11.49280 30052 ft 425 kts 303°
2026-05-07 17:45 48.95127 11.41784 30049 ft 428 kts 302°
2026-05-07 17:46 48.97867 11.35510 30047 ft 428 kts 302°
2026-05-07 17:46 49.01156 11.27946 30048 ft 428 kts 302°
2026-05-07 17:47 49.04446 11.20390 30050 ft 428 kts 302°
2026-05-07 17:47 49.07743 11.12828 30049 ft 428 kts 302°
2026-05-07 17:48 49.11028 11.05236 30056 ft 429 kts 302°
2026-05-07 17:48 49.12655 11.01461 29728 ft 419 kts 302°
2026-05-07 17:48 49.14230 10.97807 29500 ft 406 kts 302°
2026-05-07 17:49 49.15770 10.94231 29028 ft 400 kts 302°
2026-05-07 17:49 49.17288 10.90703 28474 ft 395 kts 302°
2026-05-07 17:49 49.18787 10.87215 27911 ft 391 kts 302°
2026-05-07 17:49 49.20275 10.83753 27376 ft 388 kts 302°
2026-05-07 17:50 49.21748 10.80320 26823 ft 384 kts 302°
2026-05-07 17:50 49.23205 10.76915 26249 ft 381 kts 302°
2026-05-07 17:50 49.24647 10.73536 25710 ft 378 kts 302°
2026-05-07 17:50 49.26079 10.70172 25139 ft 377 kts 302°
2026-05-07 17:51 49.27509 10.66820 24575 ft 376 kts 302°
2026-05-07 17:51 49.28934 10.63475 24161 ft 374 kts 302°
2026-05-07 17:51 49.30356 10.60127 24035 ft 374 kts 302°
2026-05-07 17:51 49.31779 10.56778 24066 ft 376 kts 302°
2026-05-07 17:52 49.33188 10.53457 24064 ft 376 kts 302°
2026-05-07 17:52 49.34612 10.50091 24066 ft 380 kts 302°
2026-05-07 17:52 49.36073 10.46632 24066 ft 390 kts 302°
2026-05-07 17:52 49.37578 10.43161 23674 ft 391 kts 303°
2026-05-07 17:53 49.39129 10.39741 23227 ft 389 kts 304°
2026-05-07 17:53 49.40693 10.36372 22835 ft 387 kts 304°
2026-05-07 17:53 49.42254 10.33025 22445 ft 384 kts 304°
2026-05-07 17:53 49.43799 10.29696 22054 ft 381 kts 304°
2026-05-07 17:54 49.45327 10.26376 21668 ft 378 kts 304°
2026-05-07 17:54 49.46833 10.23082 21286 ft 376 kts 303°
2026-05-07 17:54 49.48327 10.19794 20899 ft 374 kts 303°
2026-05-07 17:54 49.49807 10.16522 20516 ft 371 kts 303°
2026-05-07 17:55 49.51276 10.13263 20144 ft 369 kts 303°
2026-05-07 17:55 49.52736 10.10023 19764 ft 367 kts 303°
2026-05-07 17:55 49.54190 10.06796 19393 ft 367 kts 303°
2026-05-07 17:55 49.55640 10.03575 19021 ft 365 kts 303°
2026-05-07 17:56 49.57080 10.00373 18644 ft 363 kts 303°
2026-05-07 17:56 49.58495 9.97232 18278 ft 360 kts 303°
2026-05-07 17:56 49.59919 9.94067 17885 ft 358 kts 303°
2026-05-07 17:56 49.61337 9.90915 17518 ft 357 kts 304°
2026-05-07 17:57 49.62748 9.87779 17159 ft 355 kts 304°
2026-05-07 17:57 49.63696 9.85666 16910 ft 354 kts 304°
2026-05-07 17:57 49.65547 9.81536 16438 ft 352 kts 304°
2026-05-07 17:57 49.66987 9.78503 16077 ft 350 kts 311°
2026-05-07 17:58 49.68674 9.75793 15724 ft 349 kts 314°
2026-05-07 17:58 49.70392 9.73133 15360 ft 348 kts 314°
2026-05-07 17:58 49.72094 9.70497 14961 ft 346 kts 314°
2026-05-07 17:58 49.73786 9.67866 14573 ft 344 kts 314°
2026-05-07 17:59 49.75466 9.65247 14191 ft 342 kts 314°
2026-05-07 17:59 49.77140 9.62628 13795 ft 341 kts 314°
2026-05-07 17:59 49.78798 9.60028 13362 ft 339 kts 314°
2026-05-07 17:59 49.80427 9.57476 12952 ft 337 kts 314°
2026-05-07 18:00 49.82066 9.54908 12530 ft 334 kts 314°
2026-05-07 18:00 49.83697 9.52357 12111 ft 333 kts 314°
2026-05-07 18:00 49.85327 9.49815 11647 ft 332 kts 314°
2026-05-07 18:00 49.86958 9.47271 11135 ft 330 kts 314°
2026-05-07 18:01 49.88570 9.44756 10646 ft 328 kts 314°
2026-05-07 18:01 49.90179 9.42244 10161 ft 327 kts 314°
2026-05-07 18:01 49.91780 9.39745 9648 ft 326 kts 314°
2026-05-07 18:01 49.93370 9.37259 9113 ft 324 kts 314°
2026-05-07 18:02 49.96525 9.32322 8073 ft 320 kts 314°
2026-05-07 18:02 49.98089 9.29873 7556 ft 318 kts 314°
2026-05-07 18:02 49.99640 9.27441 7068 ft 316 kts 314°
2026-05-07 18:03 50.01164 9.25050 6570 ft 314 kts 314°
2026-05-07 18:03 50.02695 9.22645 6055 ft 311 kts 314°
2026-05-07 18:03 50.04208 9.20254 5530 ft 309 kts 314°
2026-05-07 18:03 50.05706 9.17873 5018 ft 306 kts 314°
2026-05-07 18:04 50.07158 9.15552 4508 ft 291 kts 314°
2026-05-07 18:04 50.08524 9.13338 4077 ft 275 kts 314°
2026-05-07 18:04 50.09809 9.11228 4000 ft 260 kts 314°
2026-05-07 18:04 50.11005 9.09252 4007 ft 241 kts 314°
2026-05-07 18:05 50.12117 9.07408 4008 ft 228 kts 314°
2026-05-07 18:05 50.13197 9.05615 4011 ft 226 kts 314°
2026-05-07 18:05 50.14040 9.03579 4012 ft 227 kts 287°
2026-05-07 18:05 50.14032 9.01144 4015 ft 230 kts 255°
2026-05-07 18:06 50.13502 8.98822 4006 ft 221 kts 251°
2026-05-07 18:06 50.12977 8.96651 4003 ft 207 kts 251°
2026-05-07 18:06 50.12488 8.94581 4017 ft 201 kts 252°
2026-05-07 18:06 50.12009 8.92539 4026 ft 200 kts 252°
2026-05-07 18:07 50.11532 8.90503 4014 ft 200 kts 252°
2026-05-07 18:07 50.11055 8.88470 4007 ft 199 kts 252°
2026-05-07 18:07 50.10594 8.86513 3993 ft 185 kts 252°
2026-05-07 18:07 50.10159 8.84664 3863 ft 180 kts 252°
2026-05-07 18:08 50.09729 8.82836 3640 ft 179 kts 252°
2026-05-07 18:08 50.09307 8.81045 3434 ft 171 kts 252°
2026-05-07 18:08 50.08910 8.79362 3190 ft 160 kts 252°
2026-05-07 18:08 50.08536 8.77777 2976 ft 152 kts 252°
2026-05-07 18:09 50.08177 8.76254 2782 ft 148 kts 251°
2026-05-07 18:09 50.07825 8.74764 2567 ft 146 kts 252°
2026-05-07 18:09 50.07476 8.73286 2382 ft 146 kts 252°
2026-05-07 18:09 50.07126 8.71808 2177 ft 145 kts 252°
2026-05-07 18:10 50.06776 8.70331 1983 ft 145 kts 251°
2026-05-07 18:10 50.06430 8.68872 1777 ft 146 kts 251°
2026-05-07 18:10 50.06074 8.67369 1573 ft 146 kts 251°
2026-05-07 18:10 50.05723 8.65888 1384 ft 146 kts 251°
2026-05-07 18:11 50.05376 8.64432 1187 ft 145 kts 251°
2026-05-07 18:11 50.05141 8.63445 1053 ft 143 kts 250°
2026-05-07 18:11 50.04683 8.61511 795 ft 142 kts 251°
2026-05-07 18:11 50.04343 8.60089 607 ft 143 kts 251°
2026-05-07 18:12 50.04000 8.58653 435 ft 142 kts 251°
2026-05-07 18:12 50.03677 8.57261 361 ft 121 kts 250°
2026-05-07 18:12 50.03445 8.56313 358 ft 51 kts 247°
2026-05-07 18:12 50.03342 8.55875 348 ft 42 kts 252°
2026-05-07 18:13 50.03314 8.55510 343 ft 32 kts 271°